DW5978 Whyalla SA AU current weather conditions

sailwx.info

Wind from 315 at 6 knots gusting 12

Air temperature 11.1° C
Dewpoint 10.0° C

Last reported at 2016-Jul-26 05:50 UTC.
Time now 2016-Jul-26 06:33 UTC

Location: S 33°01' E 137°32'.
View on Google Maps.

See reports from other nearby stations

  
Tides and Currents Weather Stations Pressure Air Temp Water Temp Dewpoint Dewpoint Depression Visibility Wind Speed Wind Dir Waves Ship Positions
date/time (UTC)wind fromknots sea level pressurealtimeterstation pressurevisibilityair tempwater tempwave heightnotes
2016-Jul-26 05:50 315 6 gusting 12 11.1
2016-Jul-26 05:35 315 6 gusting 15 11.1
2016-Jul-26 05:20 318 9 gusting 14 11.1
2016-Jul-26 05:05 316 7 gusting 16 10.6
2016-Jul-26 04:50 274 10 gusting 19 11.1
2016-Jul-26 04:35 304 10 gusting 15 14.4
2016-Jul-26 04:20 297 10 gusting 19 14.4
2016-Jul-26 04:05 313 8 gusting 14 14.4
2016-Jul-26 03:50 290 7 gusting 17 13.9
2016-Jul-26 03:35 300 8 gusting 16 13.3
2016-Jul-26 03:20 297 13 gusting 21 13.9
2016-Jul-26 03:05 345 10 gusting 21 11.7
2016-Jul-26 02:50 308 7 gusting 19 11.1
2016-Jul-26 02:35 291 10 gusting 14 11.1
2016-Jul-26 02:20 294 12 gusting 19 12.2
2016-Jul-26 02:05 311 10 gusting 15 13.3
2016-Jul-26 01:50 311 9 gusting 13 12.8
2016-Jul-26 01:35 321 9 gusting 14 12.2
2016-Jul-26 01:20 330 9 gusting 14 12.2
2016-Jul-26 01:05 325 8 gusting 13 11.7
2016-Jul-26 00:50 315 8 gusting 13 11.1
2016-Jul-26 00:35 307 7 gusting 13 10.6
2016-Jul-26 00:20 337 5 gusting 10 10.0
2016-Jul-26 00:04 297 7 gusting 13 9.4
2016-Jul-25 23:49 288 6 gusting 10 9.4
2016-Jul-25 23:35 347 6 gusting 12 9.4
2016-Jul-25 23:19 316 6 gusting 11 9.4
2016-Jul-25 23:04 308 4 gusting 10 8.9
2016-Jul-25 22:49 330 6 gusting 10 8.9
2016-Jul-25 22:34 325 6 gusting 9 8.9
2016-Jul-25 22:19 344 5 gusting 8 8.9
2016-Jul-25 22:04 328 4 gusting 8 8.9
2016-Jul-25 21:49 342 5 gusting 7 8.3
2016-Jul-25 21:34 330 2 gusting 5 8.3
2016-Jul-25 21:19 323 2 gusting 5 8.3
2016-Jul-25 21:04 333 2 gusting 5 8.3
2016-Jul-25 20:49 330 3 gusting 5 8.3
2016-Jul-25 20:34 327 2 gusting 5 8.3
2016-Jul-25 20:19 333 2 gusting 5 8.3
2016-Jul-25 20:04 312 1 gusting 3 8.3
2016-Jul-25 19:49 322 1 gusting 2 8.3
2016-Jul-25 19:34 311 0 gusting 2 8.3
2016-Jul-25 19:19 316 1 gusting 3 8.3
2016-Jul-25 19:04 309 1 gusting 2 8.3
2016-Jul-25 18:49 307 0 gusting 2 7.8
2016-Jul-25 18:34 315 1 gusting 3 7.8
2016-Jul-25 18:19 330 1 gusting 3 7.8
2016-Jul-25 18:04 315 1 gusting 3 7.8
2016-Jul-25 17:49 315 2 gusting 3 7.8
2016-Jul-25 17:34 315 1 gusting 5 7.8
2016-Jul-25 17:19 308 3 gusting 5 7.8
2016-Jul-25 17:04 306 2 gusting 3 7.8
2016-Jul-25 16:49 316 2 gusting 4 7.8
2016-Jul-25 16:34 323 2 gusting 4 7.8
2016-Jul-25 16:19 339 2 gusting 4 7.8
2016-Jul-25 16:04 325 1 gusting 3 7.8
2016-Jul-25 15:49 314 1 gusting 3 7.8
2016-Jul-25 15:34 321 1 gusting 2 8.3
2016-Jul-25 15:19 317 0 gusting 2 8.9
2016-Jul-25 15:04 325 1 gusting 3 8.9
2016-Jul-25 14:49 321 1 gusting 4 8.9
2016-Jul-25 14:33 297 2 gusting 5 8.9
2016-Jul-25 14:18 330 1 gusting 2 8.3
2016-Jul-25 14:03 320 8.9
2016-Jul-25 13:48 321 1 gusting 2 9.4
2016-Jul-25 13:34 297 0 gusting 2 10.0
2016-Jul-25 13:18 229 3 gusting 5 10.0
2016-Jul-25 13:03 270 0 gusting 6 10.0
2016-Jul-25 12:33 277 9.4
2016-Jul-25 12:18 277 9.4
2016-Jul-25 12:03 276 9.4
2016-Jul-25 11:48 276 0 gusting 3 10.0
2016-Jul-25 11:33 267 1 gusting 4 10.0
2016-Jul-25 11:18 267 3 gusting 5 10.0
2016-Jul-25 11:03 267 3 gusting 8 10.0
2016-Jul-25 10:48 249 4 gusting 8 10.0
2016-Jul-25 10:33 269 4 gusting 8 10.0
2016-Jul-25 10:18 269 6 gusting 13 10.0
2016-Jul-25 10:03 281 6 gusting 10 10.6
2016-Jul-25 09:48 252 7 gusting 12 11.1
2016-Jul-25 09:33 278 4 gusting 7 11.7
2016-Jul-25 09:18 294 5 gusting 7 11.7
2016-Jul-25 09:03 302 4 gusting 8 11.7
2016-Jul-25 08:48 300 3 gusting 6 12.2
2016-Jul-25 08:33 284 2 gusting 6 12.2
2016-Jul-25 08:18 226 6 gusting 12 12.2
2016-Jul-25 08:03 300 3 gusting 6 12.2
2016-Jul-25 07:48 306 5 gusting 8 12.2
2016-Jul-25 07:33 294 6 gusting 12 12.2
2016-Jul-25 07:18 320 6 gusting 11 12.2
2016-Jul-25 07:03 307 7 gusting 13 12.2
2016-Jul-25 06:33 285 6 gusting 10 12.2
2016-Jul-25 06:18 297 6 gusting 13 12.2
2016-Jul-25 06:03 297 7 gusting 18 12.8
2016-Jul-25 05:48 267 11 gusting 21 14.4
2016-Jul-25 05:33 321 9 gusting 15 14.4
2016-Jul-25 05:18 314 10 gusting 17 12.8
2016-Jul-25 05:03 300 9 gusting 16 12.8
2016-Jul-25 04:47 278 7 gusting 14 12.8
2016-Jul-25 04:33 302 9 gusting 19 12.8
2016-Jul-25 04:17 288 10 gusting 18 14.4
2016-Jul-25 04:02 308 13 gusting 22 14.4
2016-Jul-25 03:47 326 12 gusting 19 15.0
2016-Jul-25 03:32 307 13 gusting 23 14.4
2016-Jul-25 03:17 315 13 gusting 20 15.0
2016-Jul-25 03:02 311 11 gusting 18 15.0
2016-Jul-25 02:47 315 11 gusting 18 15.0
2016-Jul-25 02:32 297 9 gusting 16 14.4
2016-Jul-25 02:17 297 9 gusting 18 13.9
2016-Jul-25 02:02 307 11 gusting 20 13.9
2016-Jul-25 01:47 285 13 gusting 19 13.3
2016-Jul-25 01:32 278 12 gusting 19 13.9
2016-Jul-25 01:17 302 7 gusting 16 12.8
2016-Jul-25 01:02 328 10 gusting 17 12.8
2016-Jul-25 00:47 311 10 gusting 16 12.2
2016-Jul-25 00:32 319 9 gusting 15 12.2
2016-Jul-25 00:17 309 9 gusting 15 11.7
2016-Jul-25 00:02 288 9 gusting 13 11.1
2016-Jul-24 23:47 319 7 gusting 13 10.6
2016-Jul-24 23:32 302 6 gusting 12 9.4
2016-Jul-24 23:17 311 7 gusting 12 8.9
2016-Jul-24 23:02 305 6 gusting 11 8.3
2016-Jul-24 22:47 314 5 gusting 9 7.2
2016-Jul-24 22:32 311 6 gusting 10 6.7
2016-Jul-24 22:17 316 6 gusting 8 6.1
2016-Jul-24 22:02 316 4 gusting 8 5.6
2016-Jul-24 21:47 316 4 gusting 6 5.6
2016-Jul-24 21:31 308 4 gusting 7 5.6
2016-Jul-24 21:17 325 6 gusting 10 6.1
2016-Jul-24 21:02 316 6 gusting 8 6.7
2016-Jul-24 20:46 315 5 gusting 7 6.1
2016-Jul-24 20:31 306 5 gusting 8 6.1
2016-Jul-24 20:16 339 6 gusting 8 6.1
2016-Jul-24 20:01 333 4 gusting 6 6.1
2016-Jul-24 19:46 309 4 gusting 6 6.1
2016-Jul-24 19:31 325 5 gusting 7 6.1
2016-Jul-24 19:16 316 4 gusting 6 6.1
2016-Jul-24 18:46 308 5 gusting 8 6.7
2016-Jul-24 18:31 319 4 gusting 7 6.7
2016-Jul-24 18:16 300 5 gusting 6 6.7
2016-Jul-24 18:01 320 3 gusting 6 6.7
2016-Jul-24 17:46 325 5 gusting 8 7.2
2016-Jul-24 17:31 328 4 gusting 6 6.7
2016-Jul-24 17:16 321 3 gusting 5 7.2
2016-Jul-24 17:01 291 4 gusting 6 7.2
2016-Jul-24 16:31 300 4 gusting 6 7.2
2016-Jul-24 16:16 302 3 gusting 6 7.8
2016-Jul-24 16:01 314 4 gusting 6 7.8
2016-Jul-24 15:46 308 3 gusting 6 7.8
2016-Jul-24 15:32 316 3 gusting 6 7.8
2016-Jul-24 15:16 314 3 gusting 6 7.8
2016-Jul-24 15:01 302 3 gusting 6 8.3
2016-Jul-24 14:46 305 4 gusting 6 8.3
2016-Jul-24 14:31 297 5 gusting 9 8.9
2016-Jul-24 14:16 304 5 gusting 7 8.9
2016-Jul-24 14:01 302 4 gusting 7 9.4
2016-Jul-24 13:46 300 4 gusting 8 9.4
2016-Jul-24 13:30 283 4 gusting 6 9.4
2016-Jul-24 13:00 294 8 gusting 14 10.0
2016-Jul-24 12:45 294 6 gusting 10 10.0
2016-Jul-24 12:30 297 6 gusting 10 10.6
2016-Jul-24 12:15 285 5 gusting 12 11.1
2016-Jul-24 12:00 285 4 gusting 11 11.1
2016-Jul-24 11:45 305 4 gusting 9 10.6
2016-Jul-24 11:30 297 4 gusting 8 10.6
2016-Jul-24 11:15 272 4 gusting 7 10.6
2016-Jul-24 11:00 280 6 gusting 12 11.1
2016-Jul-24 10:45 283 4 gusting 12 10.0
2016-Jul-24 10:30 276 7 gusting 16 10.6
2016-Jul-24 10:15 284 8 gusting 14 11.7
2016-Jul-24 10:00 283 7 gusting 13 11.1
2016-Jul-24 09:45 285 7 gusting 17 11.1
2016-Jul-24 09:30 300 7 gusting 11 11.1
2016-Jul-24 09:15 300 7 gusting 12 11.7
2016-Jul-24 09:00 257 10 gusting 18 11.7
2016-Jul-24 08:45 270 10 gusting 16 12.2
2016-Jul-24 08:30 265 9 gusting 18 12.2
2016-Jul-24 08:15 280 8 gusting 16 12.2
2016-Jul-24 08:00 278 8 gusting 14 12.8
2016-Jul-24 07:45 267 9 gusting 15 13.3
2016-Jul-24 07:30 257 11 gusting 17 13.9
2016-Jul-24 07:15 276 12 gusting 17 13.9
2016-Jul-24 07:00 243 11 gusting 18 14.4
2016-Jul-24 06:45 255 10 gusting 19 14.4
2016-Jul-24 06:30 280 15 gusting 22 15.0
2016-Jul-24 06:15 265 13 gusting 22 15.0
2016-Jul-24 06:00 274 11 gusting 21 15.0